Location: Newark
(41.8083°N, 72.2500°W)
Time: 20:41:57
(UTC+00:00)

Courier 1B - Pass Details

Date: 05 December 2021
Orbit: 962 x 1209 km, 28.3° (Epoch: 19 January)

Event Time Altitude Azimuth Distance (km) Brightness Sun altitude
Rises 23:40:59 0° 254° (WSW) 3,984 12.0 -25.9°
Reaches altitude 10° 23:44:22 10° 242° (WSW) 2,982 10.9 -26.5°
Maximum altitude 23:50:02 25° 190° (S) 2,029 9.3 -27.5°
Enters shadow 23:52:42 20° 159° (SSE) 2,235 9.2 -28.0°
Drops below altitude 10° 23:55:27 10° 139° (SE) 2,833 - -28.5°
Sets 23:58:36 0° 126° (SE) 3,745 - -29.1°
